Terminal Aerodrome Forecast
Issued by NWS Chicago, IL

Home | Current Version | Previous Version | Text Only | Print | Product List | Glossary On
Versions: 1 2 3 4 5 6 7 8 9 10 11 12 13 14 15 16 17 18 19 20 21 22 23 24 25 26 27 28 29
400
FTUS43 KLOT 051259 AAB
TAFRFD
TAF AMD
KRFD 051259Z 0513/0612 24005KT 3SM BR OVC005
     FM051400 23006KT 2SM BR OVC004
      TEMPO 0514/0516 3/4SM BR VV002
     FM051600 17006KT 2SM BR OVC003
     FM051900 18010G18KT 4SM BR OVC005
     FM052200 17010G18KT P6SM OVC006=

USA.gov is the U.S. government's official web portal to all federal, state and local government web resources and services.